This is the latest recevied weather packets stored in our database for station/object K4AGR-13. If no packets are shown the sender has not sent any weather packets the latest 10 day(s).
| Time | Temp. | Humidity | Pressure | Rain* | Wind** | Luminosity | Snow |
|---|---|---|---|---|---|---|---|
| 1777736961 | 15° C | 91% | 1013.6 hPa | 0 mm | - | 191 W/m² | - |
| 1777736061 | 14.44° C | 92% | 1013 hPa | 0 mm | - | 302 W/m² | - |
| 1777735757 | 14.44° C | 93% | 1013.1 hPa | 0 mm | - | 306 W/m² | - |
| 1777735455 | 13.89° C | 93% | 1013 hPa | 0 mm | - | 296 W/m² | - |
| 1777735153 | 13.89° C | 93% | 1012.9 hPa | 0 mm | - | 239 W/m² | - |
| 1777734849 | 13.89° C | 93% | 1013.1 hPa | 0 mm | - | 151 W/m² | - |
| 1777734547 | 13.89° C | 93% | 1013.3 hPa | 0 mm | - | 193 W/m² | - |
| 1777734243 | 13.89° C | 93% | 1013.4 hPa | 0 mm | - | 160 W/m² | - |
| 1777733939 | 13.89° C | 94% | 1013.4 hPa | 0 mm | - | 157 W/m² | - |
| 1777733635 | 13.89° C | 94% | 1013.2 hPa | 0 mm | - | 146 W/m² | - |
| 1777733332 | 13.89° C | 94% | 1012.9 hPa | 0 mm | - | 153 W/m² | - |
| 1777733029 | 13.33° C | 94% | 1013.1 hPa | 0 mm | - | 131 W/m² | - |
| 1777732725 | 13.33° C | 94% | 1012.9 hPa | 1.78 mm | - | 138 W/m² | - |
| 1777732422 | 13.33° C | 94% | 1012.8 hPa | 1.78 mm | - | 162 W/m² | - |
| 1777732120 | 13.33° C | 94% | 1012.7 hPa | 0 mm | - | 148 W/m² | - |
| 1777731817 | 13.33° C | 95% | 1012.6 hPa | 1.27 mm | - | 170 W/m² | - |
| 1777731513 | 13.33° C | 94% | 1012.6 hPa | 1.27 mm | - | 125 W/m² | - |
| 1777731212 | 13.33° C | 94% | 1012 hPa | 1.78 mm | - | 124 W/m² | - |
| 1777730909 | 13.33° C | 94% | 1011.7 hPa | 1.78 mm | - | 185 W/m² | - |
| 1777730303 | 12.78° C | 94% | 1012 hPa | 0 mm | - | 129 W/m² | - |
| 1777730000 | 12.78° C | 94% | 1012.1 hPa | 0 mm | - | 103 W/m² | - |
| 1777729089 | 12.78° C | 95% | 1011.4 hPa | 1.27 mm | - | 99 W/m² | - |
| 1777728786 | 12.78° C | 95% | 1011.6 hPa | 1.27 mm | - | 161 W/m² | - |
| 1777728483 | 12.78° C | 95% | 1011.8 hPa | 0 mm | - | 150 W/m² | - |
| 1777728180 | 12.78° C | 95% | 1012.1 hPa | 1.78 mm | - | 83 W/m² | - |
* Rain latest hour (hover to see other rain measurements)
** Current wind speed in m/s (hover to see current wind gust speed)